When you browse on this site, cookies collect data to enhance your experience and personalize the content and advertising you see.
Visit our Privacy Policy to learn more. By continuing to use the site, you agree to this use of cookies and data.
  • In United Kingdom
  • List of Countries
  • For 7 days
  • Water Temperature
  • Weather Map
  • Weather Widgets
  • user-avatar
    Login

    Hourly Weather Atlantic City

    Today, 27 January, Monday

    Time Temperature Precipitation Wind Pressure Humidity
    00:00 0°C° 0 mm 5 mps 757 mmHg 84%
    01:00 0°C° 0 mm 4 mps 757 mmHg 92%
    02:00 -1°C° 0 mm 5 mps 756 mmHg 90%
    03:00 -1°C° 0 mm 5 mps 756 mmHg 87%
    04:00 -2°C° 0 mm 6 mps 756 mmHg 84%
    05:00 -2°C° 0 mm 6 mps 756 mmHg 84%
    06:00 -2°C° 0 mm 6 mps 756 mmHg 84%
    07:00 -1°C° 0 mm 5 mps 755 mmHg 84%
    08:00 +1°C° 0 mm 5 mps 756 mmHg 78%
    09:00 +2°C° 0 mm 6 mps 756 mmHg 72%
    10:00 +4°C° 0 mm 7 mps 756 mmHg 67%
    11:00 +4°C° 0 mm 7 mps 755 mmHg 65%
    12:00 +5°C° 0 mm 7 mps 755 mmHg 63%
    13:00 +5°C° 0 mm 7 mps 755 mmHg 61%
    14:00 +5°C° 0 mm 7 mps 755 mmHg 64%
    15:00 +4°C° 0 mm 7 mps 754 mmHg 67%
    16:00 +4°C° 0 mm 7 mps 754 mmHg 69%
    17:00 +3°C° 0 mm 6 mps 755 mmHg 71%
    18:00 +3°C° 0 mm 6 mps 755 mmHg 73%
    19:00 +2°C° 0 mm 6 mps 755 mmHg 75%
    20:00 +1°C° 0 mm 5 mps 755 mmHg 76%
    21:00 0°C° 0 mm 5 mps 755 mmHg 76%
    22:00 -1°C° 0 mm 5 mps 755 mmHg 77%
    23:00 -1°C° 0 mm 5 mps 755 mmHg 79%

    Tomorrow, 28 January, Tuesday

    Time Temperature Precipitation Wind Pressure Humidity
    00:00 -1°C° 0 mm 5 mps 755 mmHg 80%
    01:00 -2°C° 0 mm 5 mps 755 mmHg 81%
    02:00 -2°C° 0 mm 5 mps 755 mmHg 82%
    03:00 -3°C° 0 mm 6 mps 755 mmHg 82%
    04:00 -3°C° 0 mm 6 mps 755 mmHg 83%
    05:00 -3°C° 0 mm 6 mps 756 mmHg 82%
    06:00 -3°C° 0 mm 6 mps 756 mmHg 81%
    07:00 -3°C° 0 mm 6 mps 757 mmHg 80%
    08:00 -2°C° 0 mm 7 mps 757 mmHg 73%
    09:00 -1°C° 0 mm 7 mps 757 mmHg 66%
    10:00 0°C° 0 mm 7 mps 757 mmHg 58%
    11:00 +2°C° 0 mm 7 mps 757 mmHg 56%
    12:00 +3°C° 0 mm 7 mps 757 mmHg 55%
    13:00 +3°C° 0 mm 6 mps 757 mmHg 53%
    14:00 +3°C° 0 mm 6 mps 757 mmHg 54%
    15:00 +3°C° 0 mm 6 mps 757 mmHg 55%
    16:00 +3°C° 0 mm 6 mps 757 mmHg 55%
    17:00 +2°C° 0 mm 6 mps 758 mmHg 61%
    18:00 +1°C° 0 mm 6 mps 758 mmHg 66%
    19:00 -2°C° 0 mm 6 mps 758 mmHg 72%
    20:00 -2°C° 0 mm 6 mps 759 mmHg 74%
    21:00 -3°C° 0 mm 6 mps 759 mmHg 76%
    22:00 -3°C° 0 mm 6 mps 759 mmHg 78%
    23:00 -3°C° 0 mm 6 mps 760 mmHg 78%

    Day after tomorrow, 29 January, Wednesday

    Time Temperature Precipitation Wind Pressure Humidity
    00:00 -4°C° 0 mm 6 mps 760 mmHg 77%
    01:00 -4°C° 0 mm 6 mps 760 mmHg 77%
    02:00 -4°C° 0 mm 6 mps 760 mmHg 77%
    03:00 -4°C° 0 mm 6 mps 760 mmHg 76%
    04:00 -5°C° 0 mm 6 mps 760 mmHg 76%
    05:00 -5°C° 0 mm 6 mps 760 mmHg 75%
    06:00 -5°C° 0 mm 5 mps 761 mmHg 74%
    07:00 -5°C° 0 mm 5 mps 761 mmHg 73%
    08:00 -4°C° 0 mm 5 mps 761 mmHg 67%
    09:00 -2°C° 0 mm 5 mps 762 mmHg 60%
    10:00 0°C° 0 mm 5 mps 762 mmHg 53%
    11:00 0°C° 0 mm 5 mps 762 mmHg 50%
    12:00 +1°C° 0 mm 5 mps 762 mmHg 46%
    13:00 +3°C° 0 mm 4 mps 762 mmHg 42%
    14:00 +3°C° 0 mm 4 mps 762 mmHg 42%
    15:00 +3°C° 0 mm 4 mps 762 mmHg 42%
    16:00 +3°C° 0 mm 4 mps 762 mmHg 43%
    17:00 +1°C° 0 mm 4 mps 762 mmHg 48%
    18:00 -1°C° 0 mm 4 mps 763 mmHg 53%
    19:00 -1°C° 0 mm 3 mps 763 mmHg 58%
    20:00 -2°C° 0 mm 3 mps 764 mmHg 60%
    21:00 -2°C° 0 mm 3 mps 764 mmHg 61%
    22:00 -4°C° 0 mm 3 mps 764 mmHg 62%
    23:00 -4°C° 0 mm 4 mps 765 mmHg 63%

    30 January, Thursday

    Time Temperature Precipitation Wind Pressure Humidity
    00:00 -4°C° 0 mm 4 mps 765 mmHg 64%
    01:00 -4°C° 0 mm 4 mps 765 mmHg 64%
    02:00 -5°C° 0 mm 5 mps 765 mmHg 64%
    03:00 -5°C° 0 mm 5 mps 765 mmHg 64%
    04:00 -5°C° 0 mm 5 mps 766 mmHg 63%
    05:00 -5°C° 0 mm 5 mps 766 mmHg 64%
    06:00 -5°C° 0 mm 5 mps 766 mmHg 65%
    07:00 -4°C° 0 mm 4 mps 767 mmHg 66%
    08:00 -3°C° 0 mm 4 mps 767 mmHg 61%
    09:00 -1°C° 0 mm 4 mps 768 mmHg 55%
    10:00 0°C° 0 mm 4 mps 769 mmHg 50%
    11:00 +1°C° 0 mm 4 mps 768 mmHg 47%
    12:00 +3°C° 0 mm 3 mps 768 mmHg 44%
    13:00 +4°C° 0 mm 3 mps 768 mmHg 42%
    14:00 +4°C° 0 mm 3 mps 768 mmHg 47%
    15:00 +4°C° 0 mm 2 mps 768 mmHg 52%
    16:00 +4°C° 0 mm 2 mps 769 mmHg 57%
    17:00 +2°C° 0 mm 2 mps 769 mmHg 65%
    18:00 +1°C° 0 mm 2 mps 769 mmHg 74%
    19:00 -1°C° 0 mm 2 mps 769 mmHg 83%
    20:00 +1°C° 0 mm 1 mps 769 mmHg 85%
    21:00 0°C° 0 mm 1 mps 769 mmHg 87%
    22:00 -1°C° 0 mm 0 mps 769 mmHg 89%
    23:00 0°C° 0 mm 1 mps 769 mmHg 90%

    31 January, Friday

    Time Temperature Precipitation Wind Pressure Humidity
    00:00 0°C° 0 mm 1 mps 769 mmHg 90%
    01:00 0°C° 0 mm 1 mps 769 mmHg 91%
    02:00 0°C° 0 mm 1 mps 769 mmHg 90%
    03:00 -2°C° 0 mm 2 mps 769 mmHg 89%
    04:00 -2°C° 0 mm 2 mps 769 mmHg 87%
    05:00 0°C° 0 mm 1 mps 769 mmHg 84%
    06:00 0°C° 0 mm 1 mps 769 mmHg 81%
    07:00 0°C° 0 mm 1 mps 769 mmHg 78%
    08:00 +2°C° 0 mm 1 mps 769 mmHg 68%
    09:00 +4°C° 0 mm 1 mps 769 mmHg 57%
    10:00 +6°C° 0 mm 1 mps 770 mmHg 46%
    11:00 +7°C° 0 mm 1 mps 769 mmHg 45%
    12:00 +7°C° 0 mm 1 mps 769 mmHg 44%
    13:00 +7°C° 0 mm 2 mps 768 mmHg 43%
    14:00 +7°C° 0 mm 2 mps 768 mmHg 48%
    15:00 +6°C° 0 mm 2 mps 768 mmHg 52%
    16:00 +6°C° 0 mm 2 mps 767 mmHg 57%
    17:00 +4°C° 0 mm 2 mps 767 mmHg 61%
    18:00 +3°C° 0 mm 2 mps 767 mmHg 66%
    19:00 +2°C° 0 mm 2 mps 766 mmHg 71%
    20:00 +1°C° 0 mm 2 mps 766 mmHg 73%
    21:00 +1°C° 0 mm 2 mps 766 mmHg 74%
    22:00 +1°C° 0 mm 2 mps 766 mmHg 75%
    23:00 +2°C° 0 mm 1 mps 765 mmHg 77%

    1 February, Saturday

    Time Temperature Precipitation Wind Pressure Humidity
    00:00 +2°C° 0 mm 1 mps 764 mmHg 78%
    01:00 +2°C° 0 mm 1 mps 763 mmHg 79%
    02:00 +2°C° 0 mm 1 mps 763 mmHg 79%
    03:00 +2°C° 0 mm 0 mps 762 mmHg 78%
    04:00 +2°C° 0 mm 0 mps 762 mmHg 78%
    05:00 +3°C° 0.2 mm 1 mps 761 mmHg 81%
    06:00 +3°C° 0.2 mm 1 mps 760 mmHg 85%
    07:00 +3°C° 0.2 mm 1 mps 759 mmHg 89%
    08:00 +3°C° 0.3 mm 1 mps 759 mmHg 90%
    09:00 +3°C° 0.3 mm 2 mps 759 mmHg 92%
    10:00 +2°C° 0.3 mm 3 mps 758 mmHg 93%
    11:00 +2°C° 0.1 mm 3 mps 758 mmHg 91%
    12:00 +3°C° 0.1 mm 3 mps 757 mmHg 89%
    13:00 +4°C° 0.1 mm 2 mps 756 mmHg 87%
    14:00 +4°C° 0 mm 2 mps 755 mmHg 85%
    15:00 +5°C° 0 mm 2 mps 755 mmHg 84%
    16:00 +6°C° 0 mm 1 mps 754 mmHg 82%
    17:00 +5°C° 0 mm 1 mps 754 mmHg 86%
    18:00 +5°C° 0 mm 1 mps 753 mmHg 89%
    19:00 +4°C° 0 mm 1 mps 753 mmHg 93%
    20:00 +3°C° 0 mm 1 mps 753 mmHg 94%
    21:00 +3°C° 0 mm 1 mps 753 mmHg 94%
    22:00 +1°C° 0 mm 0 mps 752 mmHg 95%
    23:00 +2°C° 0.1 mm 1 mps 752 mmHg 96%
    Show more